Meerawa, Australia

10:50 PM AEST on February 20, 2018 (GMT +1000)
Meerawa

Weather History for 94287 - December, 2013

Change the Weather History Date:

Saturday, December 28, 2013

  Actual Average Record
Temperature  
Mean Temperature 77 °F -  
Max Temperature 87 °F 89 °F - ()
Min Temperature 67 °F 74 °F - ()
Cooling Degree Days 12    
Growing Degree Days 27 (Base 50)    
Moisture  
Dew Point 68 °F    
Average Humidity 69    
Maximum Humidity 100    
Minimum Humidity 36    
Precipitation  
Precipitation 0.00 in 0.50 in - ()
Sea Level Pressure  
Sea Level Pressure 29.80 in    
Wind  
Wind Speed 4 mph ()    
Max Wind Speed 12 mph    
Max Gust Speed -    
Visibility 6.9 miles    
Events      
T = Trace of Precipitation, MM = Missing Value Source: Averaged Metar Reports

Daily Weather History Graph

Daily Weather History Graph

Search for Another Location

Airport or City:

Trip Planner

Search our weather history database for the weather conditions in past years. The results will help you decide how hot, cold, wet, or windy it might be!

Date:

Astronomy

Dec. 28, 2013 Rise Set
Actual Time 5:44 AM AEST 6:52 PM AEST
Civil Twilight 5:20 AM AEST 7:16 PM AEST
Nautical Twilight 4:52 AM AEST 7:44 PM AEST
Astronomical Twilight 4:22 AM AEST 8:13 PM AEST
Moon 1:32 AM AEST (12/28) 2:30 PM AEST (12/28)
Length of Visible Light 13h 55m
Length of Day
13h 07m
Waning Crescent, 25% of the Moon is Illuminated
Dec 28
Waning Crescent
Jan 1
New
Jan 8
First Quarter
Jan 16
Full
Jan 24
Last Quarter

Hourly Weather History & Observations

Time (AEST) Temp. Heat Index Dew Point Humidity Pressure Visibility Wind Dir Wind Speed Gust Speed Precip Events Conditions
12:00 AM 72 °F - 69 °F 88% 29.82 in - West 3.5 mph - -  
12:00 AM 71.6 °F - 69.8 °F 94% 29.80 in - West 3.5 mph - N/A   Clear
12:30 AM 71.6 °F - 69.8 °F 94% 29.80 in - WSW 2.3 mph - N/A   Clear
1:00 AM 71 °F - 68 °F 88% 29.81 in - Calm Calm - -  
1:00 AM 71.6 °F - 68.0 °F 88% 29.80 in - Calm Calm - N/A   Clear
1:30 AM 71.6 °F - 68.0 °F 88% 29.77 in - Calm Calm - N/A   Clear
2:00 AM 71.6 °F - 69.8 °F 94% 29.77 in - WNW 4.6 mph - N/A   Clear
2:30 AM 69.8 °F - 68.0 °F 94% 29.77 in - Calm Calm - N/A   Clear
3:00 AM 70 °F - 68 °F 92% 29.78 in - WNW 2.3 mph - -  
3:00 AM 69.8 °F - 68.0 °F 94% 29.77 in 6.2 mi WNW 2.3 mph - N/A   Unknown
3:30 AM 69.8 °F - 68.0 °F 94% 29.77 in - Calm Calm - N/A   Clear
4:00 AM 70 °F - 68 °F 90% 29.78 in - WNW 1.2 mph - -  
4:00 AM 69.8 °F - 68.0 °F 94% 29.77 in - WNW 1.2 mph - N/A   Clear
4:30 AM 69.8 °F - 68.0 °F 94% 29.77 in - Calm Calm - N/A   Clear
5:00 AM 68.0 °F - 66.2 °F 94% 29.77 in - WNW 2.3 mph - N/A   Clear
5:30 AM 68.0 °F - 66.2 °F 94% 29.80 in 6.2 mi Calm Calm - N/A   Mostly Cloudy
6:00 AM 69 °F - 67 °F 92% 29.81 in - Calm Calm - -  
6:00 AM 68.0 °F - 68.0 °F 100% 29.80 in 6.2 mi Calm Calm - N/A   Mostly Cloudy
6:30 AM 71.6 °F - 68.0 °F 88% 29.83 in 6.2 mi ESE 4.6 mph - N/A   Mostly Cloudy
7:00 AM 75 °F - 65 °F 63% 29.84 in - SE 5.8 mph - -  
7:00 AM 75.2 °F - 64.4 °F 69% 29.83 in 6.2 mi SE 5.8 mph - N/A   Mostly Cloudy
7:30 AM 77.0 °F - 66.2 °F 69% 29.83 in 6.2 mi WNW 3.5 mph - N/A   Scattered Clouds
8:00 AM 80.6 °F 82.3 °F 64.4 °F 58% 29.83 in 6.2 mi SE 1.2 mph - N/A   Scattered Clouds
8:30 AM 82.4 °F 83.9 °F 64.4 °F 54% 29.83 in 6.2 mi SE 8.1 mph - N/A   Scattered Clouds
9:00 AM 84 °F - 65 °F 44% 29.84 in 19 mi ESE 6.9 mph - -   Partly Cloudy
9:00 AM 84.2 °F 86.6 °F 66.2 °F 55% 29.83 in 6.2 mi ESE 6.9 mph - N/A   Scattered Clouds
10:00 AM 86 °F - 63 °F 36% 29.85 in - ESE 6.9 mph - -  
10:00 AM 86.0 °F 86.6 °F 62.6 °F 45% 29.83 in 6.2 mi ESE 6.9 mph - N/A   Partly Cloudy
10:30 AM 87.8 °F 88.5 °F 62.6 °F 43% 29.83 in 6.2 mi ENE 9.2 mph - N/A   Partly Cloudy
11:00 AM 87.8 °F 90.4 °F 66.2 °F 49% 29.83 in 6.2 mi NE 10.4 mph - N/A   Partly Cloudy
11:30 AM 86.0 °F 87.3 °F 64.4 °F 48% 29.80 in 6.2 mi NE 10.4 mph - N/A   Partly Cloudy
12:00 PM 86 °F - 65 °F 40% 29.81 in - NE 10.4 mph - -  
12:00 PM 86.0 °F 87.3 °F 64.4 °F 48% 29.80 in 6.2 mi NE 10.4 mph - N/A   Partly Cloudy
12:30 PM 86.0 °F 88.2 °F 66.2 °F 51% 29.80 in 6.2 mi NE 10.4 mph - N/A   Partly Cloudy
1:00 PM 85 °F - 68 °F 47% 29.80 in - NNE 10.4 mph - -  
1:00 PM 86.0 °F 89.4 °F 68.0 °F 55% 29.77 in 6.2 mi NNE 10.4 mph - N/A   Partly Cloudy
1:30 PM 86.0 °F 89.4 °F 68.0 °F 55% 29.77 in 6.2 mi NE 11.5 mph - N/A   Partly Cloudy
2:00 PM 86.0 °F 90.4 °F 69.8 °F 58% 29.77 in 6.2 mi ENE 11.5 mph - N/A   Partly Cloudy
2:30 PM 87.8 °F 92.6 °F 69.8 °F 55% 29.77 in 6.2 mi North 11.5 mph - N/A   Partly Cloudy
3:00 PM 85 °F - 69 °F 49% 29.76 in 19 mi NE 10.4 mph - -   Partly Cloudy
3:00 PM 86.0 °F 89.4 °F 68.0 °F 55% 29.74 in 6.2 mi NE 10.4 mph - N/A   Partly Cloudy
3:30 PM 86.0 °F 89.4 °F 68.0 °F 55% 29.74 in 6.2 mi NNE 9.2 mph - N/A   Partly Cloudy
4:00 PM 84 °F - 69 °F 51% 29.76 in - NNE 10.4 mph - -  
4:00 PM 84.2 °F 87.3 °F 68.0 °F 58% 29.74 in 6.2 mi NNE 10.4 mph - N/A   Partly Cloudy
4:30 PM 84.2 °F 87.3 °F 68.0 °F 58% 29.74 in 6.2 mi NNE 10.4 mph - N/A   Partly Cloudy
5:00 PM 84.2 °F 88.4 °F 69.8 °F 62% 29.74 in 6.2 mi NNE 8.1 mph - N/A   Partly Cloudy
5:30 PM 82.4 °F 86.3 °F 69.8 °F 66% 29.77 in 6.2 mi NNE 8.1 mph - N/A   Partly Cloudy
6:00 PM 82 °F - 69 °F 58% 29.77 in - NNE 8.1 mph - -  
6:00 PM 82.4 °F 86.3 °F 69.8 °F 66% 29.77 in 6.2 mi NNE 8.1 mph - N/A   Scattered Clouds
6:30 PM 80.6 °F 83.9 °F 69.8 °F 70% 29.77 in 6.2 mi NNE 6.9 mph - N/A   Scattered Clouds
7:00 PM 81 °F - 70 °F 62% 29.80 in - NNE 6.9 mph - -  
7:00 PM 80.6 °F 83.9 °F 69.8 °F 70% 29.77 in 6.2 mi NNE 6.9 mph - N/A   Scattered Clouds
7:30 PM 80.6 °F 83.9 °F 69.8 °F 70% 29.80 in 6.2 mi NE 5.8 mph - N/A   Mostly Cloudy
8:00 PM 80.6 °F 83.9 °F 69.8 °F 70% 29.80 in 6.2 mi East 6.9 mph - N/A   Mostly Cloudy
8:30 PM 80.6 °F 83.9 °F 69.8 °F 70% 29.80 in 6.2 mi East 6.9 mph - N/A   Scattered Clouds
9:00 PM 81 °F - 69 °F 60% 29.82 in - East 6.9 mph - -  
9:00 PM 80.6 °F 83.9 °F 69.8 °F 70% 29.80 in 6.2 mi East 6.9 mph - N/A   Scattered Clouds
9:30 PM 80.6 °F 83.9 °F 69.8 °F 70% 29.83 in 6.2 mi East 5.8 mph - N/A   Scattered Clouds
10:00 PM 80 °F - 70 °F 64% 29.83 in - East 6.9 mph - -  
10:00 PM 80.6 °F 83.9 °F 69.8 °F 70% 29.83 in 6.2 mi East 6.9 mph - N/A   Scattered Clouds
10:30 PM 80.6 °F 83.9 °F 69.8 °F 70% 29.83 in 6.2 mi East 5.8 mph - N/A   Scattered Clouds
11:00 PM 77.0 °F - 69.8 °F 78% 29.83 in 6.2 mi SE 3.5 mph - N/A   Partly Cloudy
11:30 PM 78.8 °F - 69.8 °F 74% 29.83 in 6.2 mi South 5.8 mph - N/A   Partly Cloudy